Location: ????????
(55.5667°N, 37.5833°E)
Time: 14:38:13
(UTC+00:00)

Cosmos 1536 - Pass Details

Date: 14 April 2026
Orbit: 481 x 502 km, 82.5° (Epoch: 17 May)

Event Time Altitude Azimuth Distance (km) Brightness Sun altitude
Rises 23:32:02 0° 351° (N) 2,575 7.0 -19.9°
Reaches altitude 10° 23:34:12 10° 356° (N) 1,685 6.0 -19.8°
Maximum altitude 23:37:48 53° 74° (ENE) 607 3.2 -19.5°
Enters shadow 23:39:39 25° 141° (SE) 1,005 4.0 -19.4°
